Flag for U.S.A. Weather past 2 weeks in Brockton, Massachusetts, U.S.A.

Now
80 °F

Warm.


Feels Like: 81 °F
Forecast: 65 / 81 °F
Wind: 8 mph from Northeast

Location: East Milton

Current Time: Sep 1, 2015 at 2:42:43 PM

Latest Report: Sep 1, 2015 at 1:54 PM


Visibility: N/A

Pressure: 30.07 "Hg

Humidity: 49%

Dew point: 59 °F

Location of BrocktonLocation

Historic Weather in Brockton — Graph

°F

Brockton temperature yesterday

Maximum temperature yesterday: 86 °F (at 1:54 PM)
Minimum temperature yesterday: 68 °F (at 4:54 AM)
Average temperature yesterday: 77 °F

Past Weeks' High & Low Weather Summary

 TemperatureHumidityPressure
High90 °F (Aug 18, 1:54 PM)100% (Aug 19, 2:54 AM)30.22 "Hg (Aug 19, 2:54 AM)
Low58 °F (Aug 28, 5:54 AM)41% (Aug 30, 3:54 PM)29.86 "Hg (Aug 25, 5:54 PM)
Average72 °F78%30.04 "Hg
* Reported Aug 17 12:54 PM — Sep 1 12:54 PM, Brockton, Weather by CustomWeather, © 2015

Note: Actual official high and low records may vary slightly from our data, if they occured in-between our weather recording intervals... More about our weather records

Advertising

Brockton weather history for previous 24 hours

 ConditionsComfort  
Time TempWeatherWind HumidityBarometerVisibility
12:54 PM
Tue, Sep 1
79 °FWarm.7 mph50%30.07 "HgN/A
11:54 AM79 °FWarm.5 mph52%30.08 "HgN/A
10:54 AM76 °FMild.5 mph56%30.09 "HgN/A
9:54 AM76 °FMild.No wind60%30.08 "HgN/A
8:54 AM73 °FMild.8 mph69%30.06 "HgN/A
7:54 AM68 °FMild.8 mph78%30.05 "HgN/A
6:54 AM65 °FMild.13 mph87%30.04 "HgN/A
5:54 AM65 °FMild.13 mph87%30.02 "HgN/A
4:54 AM66 °FMild.13 mph87%30.01 "HgN/A
3:54 AM67 °FMild.12 mph85%30.00 "HgN/A
2:54 AM70 °FMild.10 mph73%30.00 "HgN/A
1:54 AM70 °FMild.8 mph76%30.00 "HgN/A
12:54 AM72 °FMild.10 mph71%29.99 "HgN/A
10:54 PM
Mon, Aug 31
73 °FMild.12 mph69%29.96 "HgN/A
9:54 PM75 °FMild.14 mph64%29.96 "HgN/A
8:54 PM77 °FWarm.13 mph60%29.96 "HgN/A
7:54 PM78 °FWarm.14 mph58%29.94 "HgN/A
6:54 PM80 °FWarm.14 mph56%29.92 "HgN/A
5:54 PM82 °FWarm.14 mph53%29.93 "HgN/A
4:54 PM84 °FWarm.16 mph49%29.91 "HgN/A
3:54 PM86 °FWarm.13 mph48%29.91 "HgN/A
2:54 PM86 °FWarm.16 mph48%29.92 "HgN/A
Weather by CustomWeather, © 2015

See weather overviewHow to use our weather pages